Location: Arboyeti
(42.1122°N, 44.6017°E)
Time: 16:28:31
(UTC+00:00)

BREEZE-M DEB (TANK) - Pass Details

Date: 19 April 2021
Orbit: 351 x 16373 km, 49.4° (Epoch: 06 May)

Event Time Altitude Azimuth Distance (km) Brightness Sun altitude
Rises 17:39:18 0° 284° (WNW) 2,170 6.6 -19.3°
Reaches altitude 10° 17:41:09 10° 263° (W) 1,452 5.1 -19.6°
Maximum altitude 17:43:19 20° 210° (SSW) 1,259 4.0 -19.9°
Enters shadow 17:43:49 19° 198° (SSW) 1,360 4.1 -20.0°
